Location: Mercogliano
(40.9167°N, 14.7333°E)
Time: 22:06:08
(UTC+00:00)

CZ-2C R/B - Pass Details

Date: 19 January 2021
Orbit: 785 x 870 km, 98.2° (Epoch: 06 March)

Event Time Altitude Azimuth Distance (km) Brightness Sun altitude
Exits shadow 18:04:56 45° 48° (NE) 1,160 3.0 -22.9°
Maximum altitude 18:06:23 59° 100° (E) 989 2.7 -23.1°
Drops below altitude 10° 18:11:54 10° 180° (S) 2,504 5.2 -24.2°
Sets 18:14:19 0° 184° (S) 3,440 6.0 -24.6°
